OneWeb SL0187

operational
NORAD ID: 48221 Int'l Des: 2021-031 Owner: ONEWEBN Country: UK Constellation: oneweb
LEOCIRCULARPOLARONEWEB_TYPE

关于 OneWeb SL0187

正在加载描述...

实时位置

正在加载3D地球...

即将过境

高度历史

Altitude vs Time

uPlot chart will show altitude changes over time

两行轨道根数

1 48221U 21031M 25303.16992397 .00000207 00000-0 52341-3 0 9990
2 48221 87.9009 335.5567 0002007 88.6706 271.4653 13.14505270218041
Epoch: Oct 30, 2025 • Age: 21 hours

当前状态

高度 1211.4 km
速度 7.25 km/s
星下点 -12.05°S, 99.04°E
发射日期 Apr 25, 2021
运行时间 4.5 years
类型 internet

技术详情

分类 Payload
质量 148.00 kg
干质量 140.00 kg
总质量 148.00 kg
长度 1.30 m
直径 1.00 m
跨度 5.00 m
形状 Trapezoid+2 pan
制造商 ONEWUS
平台类型 ARROW
阶段状态 In Orbit
所有者/国家 ONEWEBN/UK

大型星座

Loading constellations...